Location: Acheville
(50.3840°N, 2.8827°E)
Time: 02:17:34
(UTC+00:00)

deb Chang Zheng 4 - Pass Details

Date: 24 October 2021
Orbit: 595 x 616 km, 98.6° (Epoch: 05 December)

Event Time Altitude Azimuth Distance (km) Brightness Sun altitude
Rises 17:41:50 0° 167° (SSE) 2,827 6.9 -10.7°
Reaches altitude 10° 17:43:59 10° 169° (S) 1,932 6.1 -11.0°
Maximum altitude 17:48:11 76° 256° (WSW) 625 3.7 -11.7°
Drops below altitude 10° 17:52:26 10° 342° (NNW) 1,959 6.3 -12.4°
Sets 17:54:37 0° 344° (NNW) 2,871 7.1 -12.7°
